Location: Москва
(55.7518°N, 37.5952°E)
Time: 18:31:44
(UTC+03:00)

ISS - Pass Details

Date: 30 January 2021
Orbit: 417 x 422 km, 51.6° (Epoch: 18 May)

Event Time Altitude Azimuth Distance (km) Brightness Sun altitude
Rises 19:02:41 0° 269° (W) 2,375 1.8 -17.1°
Reaches altitude 10° 19:04:54 10° 260° (W) 1,511 0.4 -17.4°
Maximum altitude 19:08:00 34° 194° (SSW) 719 -2.5 -17.9°
Enters shadow 19:09:06 27° 155° (SSE) 858 -2.4 -18.0°
